www.pogodaiklimat.ru

Погода и климат >> Архив погоды >> Россия >> Крым >> Евпатория


ПОГОДА в Евпатории

АРХИВ ПОГОДЫ в Евпатории

Время (UTC), дата Ветер
(напр.,м/с)
 
Видим.   Явления Облачность Т
(С)
Тd
(С)
f
(%)
Тe
(С)
Тes
(С)
Комфортность P
(гПа)
Po
(гПа)
Тmin
(С)
Tmax
(С)
R
(мм)
S
(см)
03 16.03 ЮЗ 1 10 км 10 баллов +6.9 +3.9 81 +6 +6 тепло 1015.9 1014.7 +6.0
06 16.03 З 1 10 км 10 баллов +6.6 +3.7 82 +6 +6 тепло 1015.9 1014.7 +5.7
09 16.03 ЮЗ 4 4000 м дымка 10 баллов +9.9 +4.5 69 +7 +7 тепло 1015.9 1014.7
12 16.03 З 5
{11}
10 км 10 баллов +10.3 +4.2 66 +8 +8 тепло 1014.5 1013.3
15 16.03 З 4
{11}
10 км в посл. час ливневой дождь 10 баллов +7.6 +5.4 86 +4 +4 по сезону 1013.2 1012.0 0.4
18 16.03 З 3 10 км ясно +6.4 +3.6 82 +3 +3 по сезону 1014.5 1013.3 +11.4 0.4
21 16.03 З 3 10 км 6 баллов +6.4 +3.4 81 +3 +3 тепло 1013.2 1012.0
00 17.03 З 4 10 км 10 баллов +7.5 +3.9 78 +4 +4 тепло 1013.2 1012.0
03 17.03 СЗ 3 10 км 2 балла +5.9 +4.1 88 +3 +3 тепло 1011.9 1010.7 +5.6
06 17.03 С 3 10 км слабый дождь 10 баллов +4.2 +2.6 89 0 0 по сезону 1013.2 1012.0 +3.5 0.0
09 17.03 С 3 10 км слабый дождь 10 баллов +5.1 +3.8 91 +2 +2 по сезону 1014.5 1013.3
12 17.03 ЮЗ 2 10 км слабый дождь 10 баллов +6.4 +4.6 88 +4 +4 по сезону 1014.5 1013.3
15 17.03 З 4 20 км 10 баллов +6.7 +3.7 81 +3 +3 по сезону 1014.5 1013.3 2
18 17.03 СЗ 3 10 км 7 баллов +5.1 +3.0 86 +2 +2 по сезону 1015.9 1014.7 +7.9 2
21 17.03 СЗ 3 10 км 9 баллов +4.2 +2.7 90 0 0 по сезону 1015.9 1014.7
00 18.03 штиль 0 10 км 9 баллов +2.5 +1.2 91 +1 +1 по сезону 1016.0 1014.7
03 18.03 СЗ 1 10 км 10 баллов +2.7 +1.4 91 +1 +1 по сезону 1014.6 1013.3 +2.4
06 18.03 Ю 2 20 км 9 баллов +6.2 +3.9 85 +4 +4 тепло 1015.9 1014.7 +2.4
09 18.03 ЮЗ 4 20 км 6 баллов +9.6 +2.7 62 +7 +10 тепло 1014.5 1013.3
12 18.03 ЮЗ 6
{10}
20 км 7 баллов +10.0 +3.1 62 +7 +8 тепло 1013.2 1012.0
15 18.03 ЮЗ 5
{11}
20 км 10 баллов +7.9 +3.0 71 +4 +4 по сезону 1011.9 1010.7
18 18.03 Ю 9
{13}
10 км 10 баллов +7.5 +3.0 73 +2 +2 по сезону 1010.5 1009.3 +10.9
21 18.03 Ю 9
{16}
10 км слабый ливневой дождь 10 баллов +7.3 +4.4 82 +2 +2 по сезону 1007.9 1006.7
00 19.03 Ю 12
{19}
4000 м ливневой дождь 10 баллов +7.3 +5.8 90 +1 +1 по сезону 1005.2 1004.0
03 19.03 Ю 10
{19}
4000 м слабый ливневой дождь 10 баллов +7.3 +6.6 95 +2 +2 по сезону 1002.5 1001.3 +7.0 7
06 19.03 ЮЗ 5
{15}
4000 м слабый ливневой дождь 10 баллов +7.5 +6.0 90 +4 +4 тепло 1003.9 1002.7 +7.0 9
09 19.03 Ю 5
{12}
10 км 10 баллов +9.2 +7.3 88 +6 +6 тепло 1002.5 1001.3
12 19.03 З 5
{10}
10 км 10 баллов +11.5 +7.2 75 +9 +9 тепло 1002.5 1001.3
15 19.03 СЗ 4
{10}
10 км слабый ливневой дождь 10 баллов +8.8 +5.7 81 +6 +6 тепло 1002.5 1001.3 2
18 19.03 СЗ 3
{10}
10 км в посл. час ливневой дождь 10 баллов +5.4 +4.2 92 +2 +2 по сезону 1003.9 1002.7 +12.4 5
21 19.03 СЗ 6 10 км 10 баллов +5.4 +1.5 76 +1 +1 по сезону 1005.2 1004.0
00 20.03 СЗ 6
{11}
10 км ясно +4.2 -0.0 74 -1 -1 по сезону 1006.5 1005.3
03 20.03 З 3
{11}
10 км ясно +3.2 +0.3 81 -1 -1 по сезону 1007.9 1006.7 +3.1 4
06 20.03 З 4 20 км 10 баллов +5.1 +1.2 76 +1 +1 по сезону 1009.2 1008.0 +2.6
09 20.03 З 5
{10}
20 км 10 баллов +7.3 +1.4 66 +4 +4 по сезону 1010.5 1009.3
12 20.03 З 5
{11}
20 км 9 баллов +8.0 +2.7 69 +4 +5 по сезону 1011.9 1010.7
15 20.03 З 4
{10}
20 км 9 баллов +7.5 +2.4 70 +4 +4 по сезону 1011.9 1010.7
18 20.03 З 2 10 км 10 баллов +6.3 +2.7 78 +4 +4 тепло 1013.2 1012.0 +8.9
21 20.03 З 1 10 км 10 баллов +6.7 +3.7 81 +6 +6 тепло 1014.5 1013.3
00 21.03 ЮЗ 2 10 км 10 баллов +7.2 +4.7 84 +5 +5 тепло 1014.5 1013.3
03 21.03 З 1 10 км 10 баллов +6.5 +5.0 90 +5 +5 тепло 1014.5 1013.3 +6.3
06 21.03 З 1 20 км 10 баллов +7.5 +6.4 93 +6 +6 тепло 1015.9 1014.7 +5.9
09 21.03 Ю 3 20 км 2 балла +9.8 +5.4 74 +8 +15 тепло 1017.2 1016.0
12 21.03 ЮЗ 4 20 км 9 баллов +11.1 +6.4 73 +9 +9 тепло 1017.2 1016.0
15 21.03 З 3 20 км 10 баллов +10.3 +4.7 68 +8 +8 тепло 1017.2 1016.0
18 21.03 СЗ 3 10 км 4 балла +8.4 +6.4 87 +6 +6 тепло 1018.5 1017.3 +11.9
21 21.03 СВ 2 10 км ясно +6.3 +5.3 93 +4 +4 тепло 1019.9 1018.7
00 22.03 С 2 10 км ясно +4.0 +3.6 97 +1 +1 по сезону 1020.0 1018.7
03 22.03 СВ 2 200 м туман н/о +2.9 +2.6 98 -0 1021.3 1020.0 +2.8
06 22.03 СВ 2 500 м туман н/о +3.0 +2.9 99 -0 1022.6 1021.3 +1.0
09 22.03 В 1 20 км ясно +11.0 +1.5 52 +11 +24 опасность
простуды
1022.5 1021.3
12 22.03 СЗ 1 20 км ясно +13.3 -0.7 38 +14 +24 тепло 1022.5 1021.3
15 22.03 З 4 20 км ясно +11.8 +1.1 48 +10 +10 тепло 1022.5 1021.3
18 22.03 З 3 10 км ясно +8.3 +5.8 84 +6 +6 тепло 1023.9 1022.7 +13.6
21 22.03 З 2 10 км ясно +6.4 +4.7 89 +4 +4 по сезону 1023.9 1022.7

 

Местоположение метеостанции Евпатория (Крым, Россия): широта 45.18 долгота 33.37 высота над уровнем моря 10 м.

В архиве по умолчанию представлена погода в Евпатории за последнюю неделю. Архивные данные за месяц целиком и за предыдущие месяцы, начиная с января 2011 года, Вы можете получить, выбрав интересующий диапазон дат из раскрывающегося списка и нажав кнопку "Ввод!".

Внимание! Время в таблицах - всемирное. Для получения местного времени необходимо прибавить поправку, которая в Евпатории равна 3 ч.

Смотрите также архив погоды в соседних городах и на ближайших метеорологических станциях:

Погода в Симферополе (Крым, Россия) (50 км)
Погода в Севастополе (город Севастополь, Россия) (64 км)
Погода в Черноморском (Крым, Россия) (65 км)
Погода в Херсонесском Маяке (город Севастополь, Россия) (67 км)
Погода в Клепинино (Крым, Россия) (74 км)
Погода в Ай-Петри (Крым, Россия) (97 км)
Погода в Хорлах (Херсонская область, Украина) (97 км)
Погода в Белогорске (Крым, Россия) (98 км)
Погода в Алуште (Крым, Россия) (99 км)
Погода в Ялте (Крым, Россия) (100 км)

Пояснения к столбцам:

Ветер - указаны скорость ветра в м/с - средняя за 10 мин, порывы в срок и между сроками (в фигурных скобках) и направление, откуда дует ветер: С - северный, СВ - северо-восточный, В - восточный, ЮВ - юго-восточный, Ю - южный, ЮЗ - юго-западный, З - западный, СЗ - северо-западный.
Видимость - горизонтальная дальность видимости в метрах или километрах. При видимости от 1 до 10 км при отсутствии осадков обычно наблюдается дымка, при ухудшении видимости до 1 км и менее - туман. В сухую погоду видимость может ухудшаться дымом, пылью или мглою.
Явления - указаны атмосферные явления, наблюдавшиеся в срок или в последний час перед сроком; фигурными скобками обозначены явления, наблюдавшиеся между сроками (за 1-3 часа до срока); квадратными скобками обозначены град или гололедные отложения с указанием их диаметра в мм.
Облачность - указаны через наклонную черту общая и нижняя облачность в баллах и высота нижней границы облаков в метрах; квадратными скобками обозначены формы облаков: Ci - перистые, Cs - перисто-слоистые, Cc - перисто-кучевые, Ac - высококучевые, As - высокослоистые, Sc - слоисто-кучевые, Ns - слоисто-дождевые, Cu - кучевые, Cb - кучево-дождевые. Подробнее классификацию облаков см. в Атласе облаков (PDF).
T - Температура воздуха - температура, измеренная на высоте 2 м над землей.
Td - Температура точки росы - температура, при понижении до которой содержащийся в воздухе водяной пар достигнет насыщения.
f - Относительная влажность воздуха - влажноcть воздуха, измеренная на высоте 2 м над землей.
Te - Эффективная температура - температура, которую ощущает одетый по сезону человек в тени. Характеристика душности погоды. При расчете учитывается влияние влажности воздуха и скорости ветра на теплоощущения человека.
Tes - Эффективная температура на солнце - температура, которую ощущает человек, с поправкой на солнечный нагрев. Характеристика знойности погоды. Зависит от высоты солнца над горизонтом, облачности и скорости ветра. Ночью, в пасмурную погоду, а также при ветре 12 м/с и более поправка равна нулю.
P - Атмосферное давление - приведенное к уровню моря атмосферное давление.
Po - Атмосферное давление - измеренное на уровне метеостанции атмосферное давление.
Tmin - Минимальная температура - минимум температуры воздуха на высоте 2 м над землей.
Tmax - Максимальная температура - максимум температуры воздуха на высоте 2 м над землей.
R - Количество осадков - Количество выпавших осадков, мм. При наведении курсора мыши на число - период времени, за который выпало указанное количество осадков.
S - Снежный покров - Высота снежного покрова, см. При наведении курсора мыши на число - состояние снежного покрова и степень покрытия местности в баллах.